F8KHU-13 Weather Reports


Display with metric or nautical units.
time (UTC)temp
F
wind
direction
speed
MPH
gust
MPH
rain 1hr
in
rain 24hr
in
rain mn
in
humidity
%
barometer
mb
20260505101035 56 131 1.0 5.0 0.00 0.00 0.00 33 1011.6
20260505101015 56 132 0.0 5.0 0.00 0.00 0.00 33 1011.7
20260505100955 56 135 0.0 5.0 0.00 0.00 0.00 33 1011.7
20260505095535 56 135 3.0 8.0 0.00 0.00 0.00 33 1011.7
20260505095515 56 135 1.0 8.0 0.00 0.00 0.00 33 1011.6
20260505095455 56 136 3.0 8.0 0.00 0.00 0.00 33 1011.6
20260505094035 55 146 0.0 8.0 0.00 0.00 0.00 33 1011.5
20260505094015 55 146 0.0 8.0 0.00 0.00 0.00 33 1011.6
20260505093955 55 145 2.0 8.0 0.00 0.00 0.00 33 1011.6
20260505092536 56 142 1.0 13.0 0.00 0.00 0.00 33 1011.6
20260505092515 56 142 2.0 13.0 0.00 0.00 0.00 33 1011.6
20260505092455 56 143 4.0 9.0 0.00 0.00 0.00 33 1011.7
20260505091036 55 145 0.0 9.0 0.00 0.00 0.00 34 1011.6
20260505091016 55 147 0.0 9.0 0.00 0.00 0.00 33 1011.6
20260505090956 55 147 0.0 9.0 0.00 0.00 0.00 33 1011.7
20260505085536 56 145 5.0 9.0 0.00 0.00 0.00 33 1011.8
20260505085516 56 144 1.0 9.0 0.00 0.00 0.00 33 1011.7
20260505085456 56 144 4.0 9.0 0.00 0.00 0.00 33 1011.7
20260505084036 55 130 0.0 9.0 0.00 0.00 0.00 33 1011.6
20260505084016 55 132 1.0 9.0 0.00 0.00 0.00 33 1011.6
20260505083956 55 133 1.0 9.0 0.00 0.00 0.00 34 1011.6
20260505082536 55 152 1.0 8.0 0.00 0.00 0.00 34 1011.6
20260505082516 55 151 0.0 8.0 0.00 0.00 0.00 34 1011.6
20260505082456 55 151 3.0 8.0 0.00 0.00 0.00 34 1011.6
20260505081036 55 153 1.0 9.0 0.00 0.00 0.00 34 1011.7
20260505081016 55 154 3.0 9.0 0.00 0.00 0.00 35 1011.6
20260505080956 55 153 1.0 9.0 0.00 0.00 0.00 33 1011.6
20260505075548 55 149 2.0 8.0 0.00 0.00 0.00 34 1011.8
20260505075536 55 149 3.0 8.0 0.00 0.00 0.00 33 1011.8
20260505075516 55 149 2.0 8.0 0.00 0.00 0.00 34 1011.8
20260505075456 55 149 0.0 8.0 0.00 0.00 0.00 33 1011.9
20260505074037 55 145 3.0 7.0 0.00 0.00 0.00 33 1012.0
20260505073956 55 146 0.0 7.0 0.00 0.00 0.00 33 1012.0
20260505072516 55 138 0.0 5.0 0.00 0.00 0.00 33 1012.0
20260505072457 55 139 1.0 5.0 0.00 0.00 0.00 34 1012.0
20260505071037 55 144 0.0 7.0 0.00 0.00 0.00 33 1012.0
20260505071016 55 144 0.0 7.0 0.00 0.00 0.00 34 1012.0
20260505070957 55 144 1.0 7.0 0.00 0.00 0.00 34 1012.0
20260505065537 55 146 2.0 8.0 0.00 0.00 0.00 34 1012.1
20260505065517 55 146 0.0 8.0 0.00 0.00 0.00 34 1012.0
20260505065457 55 146 4.0 8.0 0.00 0.00 0.00 34 1012.1
20260505064037 55 144 0.0 8.0 0.00 0.00 0.00 34 1012.1
20260505064017 55 143 1.0 8.0 0.00 0.00 0.00 34 1012.1
20260505063957 55 144 0.0 8.0 0.00 0.00 0.00 34 1012.1
20260505062537 55 139 0.0 9.0 0.00 0.00 0.00 39 1012.0
20260505062517 55 138 0.0 9.0 0.00 0.00 0.00 39 1012.1
20260505062457 55 137 1.0 8.0 0.00 0.00 0.00 39 1012.1
20260505061037 55 151 1.0 11.0 0.00 0.00 0.00 45 1012.3
20260505061017 55 152 6.0 11.0 0.00 0.00 0.00 45 1012.2
20260505060957 55 151 3.0 11.0 0.00 0.00 0.00 45 1012.2
20260505055517 55 129 0.0 8.0 0.00 0.00 0.00 46 1012.1
20260505055457 55 130 0.0 8.0 0.00 0.00 0.00 46 1012.1
20260505054037 55 123 1.0 7.0 0.00 0.00 0.00 47 1012.1
20260505054018 55 124 1.0 7.0 0.00 0.00 0.00 46 1012.1
20260505053957 55 124 1.0 7.0 0.00 0.00 0.00 47 1012.1
20260505052538 55 130 1.0 7.0 0.00 0.00 0.00 48 1012.0
20260505052518 55 129 0.0 7.0 0.00 0.00 0.00 48 1012.1
20260505052458 55 128 1.0 7.0 0.00 0.00 0.00 47 1012.0
20260505051038 55 130 1.0 8.0 0.00 0.00 0.00 46 1012.0
20260505051018 55 129 0.0 8.0 0.00 0.00 0.00 46 1012.0
20260505050957 55 130 1.0 8.0 0.00 0.00 0.00 47 1012.1
20260505041038 55 122 2.0 8.0 0.00 0.00 0.00 44 1012.3
20260505041018 55 123 4.0 7.0 0.00 0.00 0.00 44 1012.3
20260505040958 55 123 1.0 7.0 0.00 0.00 0.00 44 1012.2
20260505035533 56 110 1.0 7.0 0.00 0.00 0.00 44 1012.3
20260505035513 56 110 1.0 7.0 0.00 0.00 0.00 44 1012.4
20260505035453 56 111 1.0 7.0 0.00 0.00 0.00 44 1012.3
20260505034034 56 114 1.0 5.0 0.00 0.00 0.00 44 1012.5
20260505034014 56 114 0.0 5.0 0.00 0.00 0.00 44 1012.5
20260505033954 56 113 1.0 5.0 0.00 0.00 0.00 40 1012.5
20260505032534 56 105 0.0 7.0 0.00 0.00 0.00 43 1012.6
20260505032514 56 103 1.0 7.0 0.00 0.00 0.00 39 1012.6
20260505032454 56 103 1.0 7.0 0.00 0.00 0.00 39 1012.7
20260505031034 56 118 0.0 7.0 0.00 0.00 0.00 36 1012.6
20260505031014 56 119 1.0 7.0 0.00 0.00 0.00 36 1012.6
20260505030954 56 118 0.0 7.0 0.00 0.00 0.00 35 1012.6
20260505025534 56 125 0.0 5.0 0.00 0.00 0.00 36 1012.7
20260505025514 56 127 0.0 5.0 0.00 0.00 0.00 36 1012.8
20260505025454 56 126 1.0 5.0 0.00 0.00 0.00 36 1012.8
20260505024034 56 146 1.0 7.0 0.00 0.00 0.00 37 1012.9
20260505024014 56 148 1.0 7.0 0.00 0.00 0.00 38 1013.0
20260505023954 56 147 0.0 7.0 0.00 0.00 0.00 36 1013.0
20260505022534 56 140 0.0 7.0 0.00 0.00 0.00 33 1012.8
20260505022514 56 140 1.0 7.0 0.00 0.00 0.00 33 1012.8
20260505022454 56 139 0.0 7.0 0.00 0.00 0.00 33 1012.8
20260505021034 56 130 1.0 8.0 0.00 0.00 0.00 33 1012.7
20260505021014 56 130 3.0 8.0 0.00 0.00 0.00 33 1012.6
20260505020954 56 131 4.0 8.0 0.00 0.00 0.00 33 1012.7
20260505015535 57 143 1.0 9.0 0.00 0.00 0.00 33 1012.8
20260505015514 57 142 0.0 9.0 0.00 0.00 0.00 33 1012.8
20260505015455 57 143 3.0 9.0 0.00 0.00 0.00 33 1012.8
20260505014035 57 135 1.0 8.0 0.00 0.00 0.00 33 1012.7
20260505014015 57 135 3.0 8.0 0.00 0.00 0.00 33 1012.7
20260505013955 57 137 3.0 8.0 0.00 0.00 0.00 33 1012.7
20260505012535 58 128 0.0 4.0 0.00 0.00 0.00 33 1012.9
20260505012515 58 128 2.0 4.0 0.00 0.00 0.00 33 1012.8
20260505012455 58 128 0.0 4.0 0.00 0.00 0.00 33 1012.8
20260505011035 58 115 0.0 5.0 0.00 0.00 0.00 33 1012.8
20260505011015 58 116 0.0 5.0 0.00 0.00 0.00 33 1012.8
20260505010955 58 116 0.0 5.0 0.00 0.00 0.00 33 1012.9
20260505005535 58 138 1.0 7.0 0.00 0.00 0.00 33 1013.0
20260505005515 58 139 2.0 7.0 0.00 0.00 0.00 33 1012.9
20260505005455 58 138 3.0 7.0 0.00 0.00 0.00 33 1012.9
20260505004035 58 130 0.0 8.0 0.00 0.00 0.00 33 1012.8
20260505004015 58 129 0.0 8.0 0.00 0.00 0.00 33 1012.9
20260505003955 58 128 0.0 8.0 0.00 0.00 0.00 33 1012.9
20260505002535 58 130 4.0 7.0 0.00 0.00 0.00 33 1013.0
20260505002515 58 130 6.0 7.0 0.00 0.00 0.00 33 1013.0
20260505002455 58 130 1.0 7.0 0.00 0.00 0.00 33 1013.0
20260505001035 59 149 1.0 5.0 0.00 0.00 0.00 32 1013.2
20260505001015 59 149 4.0 5.0 0.00 0.00 0.00 32 1013.1
20260505000956 59 149 2.0 5.0 0.00 0.00 0.00 32 1013.2
20260504235536 59 131 1.0 4.0 0.00 0.00 0.00 32 1013.2
20260504235516 59 132 0.0 4.0 0.00 0.00 0.00 32 1013.3
20260504235456 59 131 0.0 4.0 0.00 0.00 0.00 32 1013.3
20260504234016 59 133 0.0 5.0 0.00 0.00 0.00 32 1013.4
20260504233956 59 132 0.0 5.0 0.00 0.00 0.00 32 1013.4
20260504232536 59 133 2.0 4.0 0.00 0.00 0.00 32 1013.5
20260504232516 59 134 1.0 4.0 0.00 0.00 0.00 32 1013.4
20260504232456 59 135 0.0 4.0 0.00 0.00 0.00 32 1013.4
20260504231036 59 184 0.0 0.0 0.00 0.00 0.00 32 1013.7
20260504231016 59 184 0.0 0.0 0.00 0.00 0.00 32 1013.6
20260504230956 59 185 0.0 0.0 0.00 0.00 0.00 32 1013.7
20260504225536 59 166 0.0 0.0 0.00 0.00 0.00 32 1013.7
20260504225516 59 164 0.0 0.0 0.00 0.00 0.00 32 1013.7
20260504225456 59 168 0.0 0.0 0.00 0.00 0.00 32 1013.7
20260504224036 59 130 0.0 0.0 0.00 0.00 0.00 32 1013.8
20260504224016 59 132 0.0 0.0 0.00 0.00 0.00 32 1013.8
20260504223956 59 132 0.0 0.0 0.00 0.00 0.00 32 1013.7
20260504222537 59 124 0.0 0.0 0.00 0.00 0.00 32 1013.8
20260504222457 59 124 0.0 0.0 0.00 0.00 0.00 32 1013.8
20260504221037 59 152 0.0 0.0 0.00 0.00 0.00 32 1013.9
20260504220957 59 151 0.0 0.0 0.00 0.00 0.00 32 1013.9
20260504215537 60 146 0.0 0.0 0.00 0.00 0.00 32 1014.0
20260504215516 60 145 0.0 0.0 0.00 0.00 0.00 32 1014.0
20260504215457 60 145 0.0 0.0 0.00 0.00 0.00 32 1013.9
20260504214036 59 204 0.0 0.0 0.00 0.00 0.00 31 1014.2
20260504214017 59 206 0.0 0.0 0.00 0.00 0.00 31 1014.1
20260504213957 59 209 0.0 0.0 0.00 0.00 0.00 31 1014.2
20260504212537 59 75 0.0 0.0 0.00 0.00 0.00 31 1014.2
20260504212457 59 74 0.0 0.0 0.00 0.00 0.00 31 1014.2
20260504211037 60 107 0.0 0.0 0.00 0.00 0.00 31 1014.3
20260504211017 60 107 0.0 0.0 0.00 0.00 0.00 31 1014.4
20260504210957 60 108 0.0 0.0 0.00 0.00 0.00 31 1014.4
20260504205537 60 85 0.0 0.0 0.00 0.07 0.00 30 1014.5
20260504205517 60 85 0.0 0.0 0.00 0.07 0.00 30 1014.4
20260504205457 60 85 0.0 0.0 0.00 0.07 0.00 30 1014.5
20260504204038 60 149 0.0 0.0 0.00 0.07 0.00 30 1014.6
20260504204017 60 150 0.0 0.0 0.00 0.07 0.00 30 1014.6
20260504203957 60 152 0.0 0.0 0.00 0.07 0.00 30 1014.6
20260504202537 61 70 0.0 0.0 0.00 0.07 0.00 30 1014.6
20260504202518 61 72 0.0 0.0 0.00 0.07 0.00 30 1014.6
20260504202457 61 74 0.0 0.0 0.00 0.07 0.00 30 1014.6
20260504201038 61 65 0.0 1.0 0.00 0.07 0.00 30 1014.5
20260504200958 61 64 0.0 1.0 0.00 0.07 0.00 30 1014.5
20260504195538 61 162 0.0 1.0 0.00 0.14 0.00 30 1014.5
20260504195518 61 164 0.0 1.0 0.00 0.14 0.00 30 1014.5
20260504195458 61 165 0.0 1.0 0.00 0.14 0.00 30 1014.5
20260504194038 61 161 0.0 1.0 0.00 0.14 0.00 30 1014.4
20260504193958 61 160 0.0 1.0 0.00 0.14 0.00 30 1014.3
20260504192538 61 125 0.0 2.0 0.00 0.14 0.00 30 1014.1
20260504192518 61 123 0.0 2.0 0.00 0.14 0.00 30 1014.1
20260504192458 61 122 0.0 2.0 0.00 0.14 0.00 30 1014.1
20260504191038 61 138 0.0 1.0 0.00 0.14 0.00 30 1014.0
20260504191018 61 139 0.0 1.0 0.00 0.14 0.00 30 1014.1
20260504190958 61 140 0.0 1.0 0.00 0.14 0.00 30 1014.0
20260504185518 62 171 0.0 1.0 0.00 0.16 0.00 30 1014.0
20260504185459 62 171 0.0 1.0 0.00 0.16 0.00 30 1014.1
20260504184033 62 125 0.0 2.0 0.00 0.16 0.00 30 1013.9
20260504184014 62 121 0.0 2.0 0.00 0.16 0.00 30 1013.9
20260504183953 62 119 0.0 2.0 0.00 0.16 0.00 30 1014.0
20260504182533 62 139 0.0 4.0 0.00 0.16 0.00 30 1013.7
20260504182514 62 141 0.0 4.0 0.00 0.16 0.00 30 1013.7
20260504182454 62 142 0.0 4.0 0.00 0.16 0.00 30 1013.7
20260504181034 63 115 1.0 5.0 0.00 0.16 0.00 28 1013.7
20260504181014 63 116 0.0 5.0 0.00 0.16 0.00 28 1013.7
20260504180954 63 117 1.0 5.0 0.00 0.16 0.00 28 1013.6
20260504175534 63 141 0.0 4.0 0.00 0.18 0.00 29 1013.8
20260504175514 63 140 1.0 4.0 0.00 0.18 0.00 29 1013.8
20260504175454 63 141 2.0 4.0 0.00 0.18 0.00 29 1013.7
20260504174034 64 135 0.0 1.0 0.00 0.18 0.00 29 1013.9
20260504174014 64 133 0.0 1.0 0.00 0.18 0.00 29 1013.9
20260504173954 64 133 0.0 1.0 0.00 0.18 0.00 28 1013.9
20260504172534 64 134 0.0 2.0 0.00 0.18 0.00 28 1014.0
20260504172514 64 134 0.0 2.0 0.00 0.18 0.00 28 1013.9
20260504172454 64 132 0.0 2.0 0.00 0.18 0.00 28 1013.9
20260504171034 64 135 0.0 2.0 0.00 0.18 0.00 28 1014.0
20260504171014 64 133 0.0 2.0 0.00 0.18 0.00 28 1014.0
20260504170955 64 132 0.0 2.0 0.00 0.18 0.00 28 1014.0
20260504151035 64 69 0.0 7.0 0.00 0.34 0.00 29 1014.4
20260504150956 64 70 0.0 7.0 0.00 0.34 0.00 29 1014.4
20260504141036 70 122 6.0 11.0 0.00 0.36 0.00 27 1014.7
20260504141016 71 123 8.0 11.0 0.00 0.36 0.00 26 1014.6
20260504140956 71 124 9.0 11.0 0.00 0.36 0.00 26 1014.6